SWR121 LSZH-LSGG

Flight info

Callsign SWR121
Flight time N/A
Altitude 16000
Route VEBIT T50 ROTOS Z669 ULMES
Aircraft A21N/M-SDE2E3FGHIRWXY/LB1

Departure

Time N/A
Airport Zürich Airport (LSZH)

Arrival

Time 2026-05-05 13:48
Airport Geneva International Airport (LSGG)
Time Latitude Longitude Altitude Speed Heading
2026-05-05 13:29 47.14304 7.63665 15870 ft 369 kts 231°
2026-05-05 13:29 47.12698 7.60715 15865 ft 370 kts 230°
2026-05-05 13:30 47.11082 7.57772 15867 ft 371 kts 230°
2026-05-05 13:30 47.09464 7.54825 15871 ft 371 kts 230°
2026-05-05 13:30 47.07839 7.51855 15875 ft 371 kts 230°
2026-05-05 13:30 47.06248 7.48939 15883 ft 371 kts 230°
2026-05-05 13:31 47.04639 7.45982 15886 ft 371 kts 230°
2026-05-05 13:31 47.03025 7.43016 15883 ft 371 kts 230°
2026-05-05 13:31 47.01413 7.40061 15879 ft 371 kts 230°
2026-05-05 13:31 46.99800 7.37112 15887 ft 370 kts 230°
2026-05-05 13:32 46.98189 7.34171 15882 ft 368 kts 230°
2026-05-05 13:32 46.96594 7.31261 15881 ft 367 kts 230°
2026-05-05 13:32 46.94998 7.28351 15879 ft 367 kts 230°
2026-05-05 13:32 46.93402 7.25437 15881 ft 362 kts 231°
2026-05-05 13:33 46.91850 7.22607 15639 ft 349 kts 231°
2026-05-05 13:33 46.90354 7.19881 15429 ft 338 kts 231°
2026-05-05 13:33 46.88919 7.17269 15210 ft 331 kts 231°
2026-05-05 13:33 46.87461 7.14618 14974 ft 339 kts 231°
2026-05-05 13:34 46.85978 7.11925 14729 ft 340 kts 230°
2026-05-05 13:34 46.84493 7.09231 14495 ft 339 kts 231°
2026-05-05 13:34 46.83013 7.06547 14252 ft 338 kts 230°
2026-05-05 13:34 46.81538 7.03876 14014 ft 336 kts 230°
2026-05-05 13:35 46.80068 7.01214 13780 ft 335 kts 230°
2026-05-05 13:35 46.78624 6.98604 13524 ft 334 kts 230°
2026-05-05 13:35 46.77173 6.95979 13250 ft 326 kts 230°
2026-05-05 13:35 46.75774 6.93451 12975 ft 315 kts 230°
2026-05-05 13:36 46.74420 6.91009 12714 ft 304 kts 230°
2026-05-05 13:36 46.73116 6.88656 12534 ft 291 kts 230°
2026-05-05 13:36 46.71872 6.86413 12332 ft 279 kts 230°
2026-05-05 13:36 46.70672 6.84253 12145 ft 268 kts 230°
2026-05-05 13:37 46.69517 6.82176 11873 ft 260 kts 229°
2026-05-05 13:37 46.68383 6.80139 11482 ft 257 kts 229°
2026-05-05 13:37 46.67252 6.78110 10985 ft 258 kts 230°
2026-05-05 13:37 46.66124 6.76099 10713 ft 254 kts 229°
2026-05-05 13:38 46.64983 6.74178 10531 ft 252 kts 227°
2026-05-05 13:38 46.63819 6.72270 10415 ft 252 kts 227°
2026-05-05 13:38 46.62651 6.70368 10307 ft 252 kts 227°
2026-05-05 13:38 46.61480 6.68462 9972 ft 252 kts 227°
2026-05-05 13:39 46.60315 6.66570 9649 ft 250 kts 227°
2026-05-05 13:39 46.59157 6.64689 9330 ft 249 kts 227°
2026-05-05 13:39 46.57999 6.62811 9038 ft 249 kts 227°
2026-05-05 13:39 46.56841 6.60932 8724 ft 249 kts 227°
2026-05-05 13:40 46.55688 6.59062 8426 ft 248 kts 227°
2026-05-05 13:40 46.54534 6.57193 8119 ft 248 kts 227°
2026-05-05 13:40 46.53380 6.55327 7813 ft 248 kts 226°
2026-05-05 13:40 46.52244 6.53448 7516 ft 248 kts 229°
2026-05-05 13:41 46.51155 6.51502 7234 ft 247 kts 229°
2026-05-05 13:41 46.50050 6.49643 7153 ft 246 kts 226°
2026-05-05 13:41 46.48884 6.47813 7062 ft 247 kts 225°
2026-05-05 13:41 46.47697 6.46012 6956 ft 246 kts 224°
2026-05-05 13:42 46.46494 6.44240 6814 ft 246 kts 224°
2026-05-05 13:42 46.45293 6.42507 6522 ft 239 kts 223°
2026-05-05 13:42 46.44116 6.40826 6204 ft 235 kts 223°
2026-05-05 13:42 46.42962 6.39172 5875 ft 230 kts 223°
2026-05-05 13:43 46.41849 6.37557 5561 ft 224 kts 223°
2026-05-05 13:43 46.40764 6.35959 5182 ft 223 kts 224°
2026-05-05 13:43 46.39662 6.34318 4859 ft 226 kts 224°
2026-05-05 13:43 46.38590 6.32710 4541 ft 227 kts 225°
2026-05-05 13:44 46.37482 6.31051 4315 ft 229 kts 225°
2026-05-05 13:44 46.36392 6.29429 4224 ft 215 kts 224°
2026-05-05 13:44 46.35395 6.27954 4028 ft 200 kts 224°
2026-05-05 13:44 46.34423 6.26525 3922 ft 197 kts 223°
2026-05-05 13:45 46.33492 6.25158 3830 ft 185 kts 224°
2026-05-05 13:45 46.32597 6.23840 3560 ft 184 kts 224°
2026-05-05 13:45 46.31709 6.22528 3300 ft 178 kts 225°
2026-05-05 13:45 46.31152 6.21706 3151 ft 168 kts 224°
2026-05-05 13:46 46.30374 6.20558 2926 ft 153 kts 224°
2026-05-05 13:46 46.29638 6.19474 2726 ft 151 kts 225°
2026-05-05 13:46 46.28907 6.18396 2537 ft 147 kts 224°
2026-05-05 13:46 46.28214 6.17376 2312 ft 140 kts 223°
2026-05-05 13:47 46.27524 6.16359 2122 ft 142 kts 224°
2026-05-05 13:47 46.26832 6.15340 1918 ft 141 kts 224°
2026-05-05 13:47 46.26151 6.14338 1735 ft 137 kts 222°
2026-05-05 13:47 46.25494 6.13370 1551 ft 134 kts 223°
2026-05-05 13:48 46.24845 6.12418 1363 ft 130 kts 225°
2026-05-05 13:48 46.24393 6.11751 1372 ft 66 kts 225°
2026-05-05 13:48 46.24103 6.11325 1379 ft 55 kts 225°
2026-05-05 13:48 46.23913 6.11084 1381 ft 24 kts 193°
2026-05-05 13:49 46.23754 6.11093 1382 ft 22 kts 175°
2026-05-05 13:49 46.23617 6.11070 1375 ft 17 kts 220°
2026-05-05 13:49 46.23530 6.11102 1377 ft 14 kts 125°
2026-05-05 13:49 46.23477 6.11187 1381 ft 1 kts 136°